Location: Caltech
(34.1382°N, 118.1253°W)
Time: 00:49:14
(UTC-07:00)

COSMOS 2428 - Visible Passes

Search period start: 29 July 2016 00:00
Search period end: 08 August 2016 00:00
Orbit: 845 x 857 km, 70.9° (Epoch: 28 July)

Date Brightness Start Highest point End Pass type
(mag) Time Alt. Az. Time Alt. Az. Time Alt. Az.
29 Jul 3.7 05:17:54 10° S 05:23:18 47° ESE 05:28:42 10° NNE visible
30 Jul 3.7 05:05:44 10° S 05:11:07 47° ESE 05:16:32 10° NNE visible
31 Jul 3.6 04:53:34 10° S 04:58:58 48° ESE 05:04:22 10° NNE visible
01 Aug 3.6 04:41:24 10° S 04:46:48 48° ESE 04:52:13 10° NNE visible
02 Aug 3.5 04:29:28 11° S 04:34:38 48° ESE 04:40:04 10° NNE visible
03 Aug 3.5 04:18:16 16° S 04:22:29 48° ESE 04:27:54 10° NNE visible
04 Aug 3.5 04:07:00 22° S 04:10:19 48° ESE 04:15:45 10° NNE visible
05 Aug 3.4 03:55:40 29° SSE 03:58:10 48° ESE 04:03:34 10° NNE visible
06 Aug 3.4 03:44:17 36° SSE 03:46:00 48° ESE 03:51:25 10° NNE visible
06 Aug 4.2 05:26:20 10° WSW 05:30:29 21° WNW 05:34:40 10° N visible
07 Aug 3.3 03:32:51 43° SE 03:33:51 48° ESE 03:39:16 10° NNE visible
07 Aug 4.2 05:14:53 13° W 05:18:19 21° WNW 05:22:31 10° N visible
